ARIANE 5 DEB, 43382

Orbit data source: Space-Track

ARIANE 5 DEB, 43382 is space debris in HEO originally from a launch on Thu, 12 Jun 2008 UTC launched from the French Guiana (FRGUI). Debris objects in space refer to the collection of defunct objects orbiting the Earth. Examples of debris include non-operational satellites, rocket bodies, and fragments generated from explosions, collisions, or faulty payload assembly.

Loading next visibility...
Identifier
43382, 2008-030E
Orbit
HEO
Country
Flag of FRFR
Related business
Manufacturer
Thales Alenia
Mission
Spacecraft
Bus & Motor
Unknown
Mass
Unknown
Launch date (UTC)
2008-06-12 (18 years ago)
Launch vehicle
Unknown
Launch site
French Guiana (FRGUI)
Object type
Payload
Rocket body
Debris
Shape & HBR
Unknown shape, 1.8 m
Radar Cross Section
Large (>1 m²)

Expand to show TLE details & history
Last TLE update: 11 hours ago

TLE from 11 hours ago
0 ARIANE 5 DEB
1 43382U 08030E   26255.25610150  .00001621  00000-0  89814-3 0  9994
2 43382   2.0368 325.8606 7038345 347.1957   1.7677  2.56632840115626
Epoch: 2026-09-12T06:08Z
TLE epoch observation values (Epoch: 2026-09-12T06:08:47.169Z)
Latitude
-0.00004°
Longitude
-117.45323°
Altitude
357.956 km
Speed
10.032 km/s
True Right ascension
21h 44m 02s
True Declination
0° 00' 00"
Sunlit
Object was in full shadow at epoch
Visualization orbit readout
Latitude
Unknown
Longitude
Unknown
Altitude
Unknown
Speed
Unknown
Apparent Right ascension
Unknown
Apparent Declination
Unknown
Sunlit
N/A
Visualization observer readout
Local Sidereal Time
09:31:56
Azimuth
Unknown
Elevation
Unknown
Doppler factor
Unknown
Orbital elements
Apogee altitude
32,027.317 km
Perigee altitude
297.611 km
Semi-major axis
22,540.601 km
Eccentricity
0.70383
Inclination
2.0368°
RAAN
325.8606°
Arg. of periapsis
347.1957°
True anomaly
14.19498°
Mean anomaly
1.7677°
Eccentric anomaly
5.94331°
Mean motion
0.64135 °/min
Orbital period
561.32 mins
BSTAR
0.00089814
Loading maneuver chart data...
Computing Atmospheric mass density...
Loading historical data...
Loading historical data...
Loading historical data...
Loading historical data...
Loading historical data...
Loading historical data...
Loading historical data...

Documentation

Showing up to 5 results
|